| time (UTC) | temp F | wind direction | speed knots | gust knots | rain 1hr in | rain 24hr in | rain mn in | humidity % | barometer mb |
| 20260503214503 | 60 | 66 | 2.6 | 4.3 | 0.00 | 0.00 | 0.00 | 64 | 1018.4 |
| 20260503213608 | 60 | 56 | 2.6 | 5.2 | 0.00 | 0.00 | 0.00 | 64 | 1018.3 |
| 20260503212703 | 61 | 102 | 2.6 | 4.3 | 0.00 | 0.00 | 0.00 | 62 | 1018.1 |
| 20260503211824 | 62 | 153 | 3.5 | 4.3 | 0.00 | 0.00 | 0.00 | 62 | 1018.3 |
| 20260503210905 | 61 | 134 | 3.5 | 5.2 | 0.00 | 0.00 | 0.00 | 63 | 1017.8 |
| 20260503210024 | 61 | 85 | 2.6 | 5.2 | 0.00 | 0.00 | 0.00 | 62 | 1017.9 |
| 20260503205403 | 62 | 90 | 1.7 | 3.5 | 0.00 | 0.00 | 0.00 | 60 | 1018.0 |
| 20260503204503 | 63 | 134 | 1.7 | 5.2 | 0.00 | 0.00 | 0.00 | 60 | 1017.8 |
| 20260503203603 | 63 | 187 | 2.6 | 5.2 | 0.00 | 0.00 | 0.00 | 61 | 1017.8 |
| 20260503202703 | 63 | 184 | 3.5 | 4.3 | 0.00 | 0.00 | 0.00 | 60 | 1017.7 |
| 20260503201803 | 63 | 171 | 2.6 | 4.3 | 0.00 | 0.00 | 0.00 | 60 | 1017.4 |
| 20260503200903 | 63 | 137 | 2.6 | 4.3 | 0.00 | 0.00 | 0.00 | 59 | 1017.6 |
| 20260503200003 | 64 | 150 | 3.5 | 5.2 | 0.00 | 0.00 | 0.00 | 59 | 1017.5 |
| 20260503195445 | 64 | 144 | 2.6 | 5.2 | 0.00 | 0.00 | 0.00 | 59 | 1017.5 |
| 20260503194503 | 64 | 152 | 1.7 | 3.5 | 0.00 | 0.00 | 0.00 | 56 | 1017.3 |
| 20260503193603 | 65 | 166 | 2.6 | 4.3 | 0.00 | 0.00 | 0.00 | 58 | 1017.3 |
| 20260503192703 | 65 | 124 | 2.6 | 3.5 | 0.00 | 0.00 | 0.00 | 56 | 1016.9 |
| 20260503191803 | 65 | 146 | 2.6 | 4.3 | 0.00 | 0.00 | 0.00 | 55 | 1017.1 |
| 20260503190905 | 66 | 172 | 2.6 | 4.3 | 0.00 | 0.00 | 0.00 | 55 | 1016.7 |
| 20260503190004 | 66 | 209 | 1.7 | 3.5 | 0.00 | 0.00 | 0.00 | 54 | 1016.8 |
| 20260503185404 | 67 | 189 | 1.7 | 4.3 | 0.00 | 0.00 | 0.00 | 51 | 1016.4 |
| 20260503184524 | 68 | 125 | 1.7 | 3.5 | 0.00 | 0.00 | 0.00 | 47 | 1016.3 |
| 20260503183603 | 69 | 94 | 0.9 | 1.7 | 0.00 | 0.00 | 0.00 | 44 | 1016.6 |
| 20260503182703 | 69 | 82 | 0.9 | 2.6 | 0.00 | 0.00 | 0.00 | 43 | 1016.2 |
| 20260503181803 | 69 | 77 | 0.9 | 2.6 | 0.00 | 0.00 | 0.00 | 43 | 1016.3 |
| 20260503180903 | 70 | 266 | 0.0 | 1.7 | 0.00 | 0.00 | 0.00 | 42 | 1016.2 |
| 20260503180005 | 70 | 267 | 0.9 | 2.6 | 0.00 | 0.00 | 0.00 | 40 | 1016.2 |
| 20260503175404 | 71 | 251 | 0.9 | 2.6 | 0.00 | 0.00 | 0.00 | 40 | 1016.1 |
| 20260503174503 | 71 | 246 | 0.9 | 2.6 | 0.00 | 0.00 | 0.00 | 39 | 1016.1 |
| 20260503173603 | 72 | 237 | 0.9 | 2.6 | 0.00 | 0.00 | 0.00 | 38 | 1015.8 |
| 20260503172705 | 73 | 214 | 1.7 | 2.6 | 0.00 | 0.00 | 0.00 | 38 | 1015.8 |
| 20260503171824 | 74 | 220 | 0.9 | 2.6 | 0.00 | 0.00 | 0.00 | 36 | 1016.1 |
| 20260503170924 | 74 | 266 | 0.9 | 2.6 | 0.00 | 0.00 | 0.00 | 36 | 1016.0 |
| 20260503150903 | 74 | 304 | 3.5 | 9.6 | 0.00 | 0.00 | 0.00 | 33 | 1016.7 |
| 20260503130903 | 72 | 313 | 5.2 | 12.2 | 0.00 | 0.00 | 0.00 | 32 | 1017.6 |
| 20260503080903 | 62 | 126 | 1.7 | 4.3 | 0.00 | 0.00 | 0.00 | 49 | 1020.4 |
| 20260503072703 | 58 | 158 | 2.6 | 7.0 | 0.00 | 0.00 | 0.00 | 55 | 1020.6 |
| 20260503071803 | 57 | 166 | 2.6 | 5.2 | 0.00 | 0.00 | 0.00 | 55 | 1020.9 |
| 20260503070903 | 57 | 138 | 4.3 | 6.1 | 0.00 | 0.00 | 0.00 | 56 | 1020.8 |
| 20260503054503 | 47 | 146 | 6.1 | 10.4 | 0.00 | 0.00 | 0.00 | 74 | 1020.8 |
| 20260503053603 | 47 | 145 | 6.1 | 9.6 | 0.00 | 0.00 | 0.00 | 75 | 1020.7 |
| 20260503052724 | 47 | 141 | 5.2 | 7.8 | 0.00 | 0.00 | 0.00 | 73 | 1020.7 |
| 20260503051803 | 49 | 133 | 4.3 | 7.8 | 0.00 | 0.00 | 0.00 | 70 | 1020.6 |
| 20260503050924 | 49 | 104 | 4.3 | 6.1 | 0.00 | 0.00 | 0.00 | 69 | 1020.8 |
| 20260503050003 | 47 | 89 | 3.5 | 5.2 | 0.00 | 0.00 | 0.00 | 71 | 1020.4 |
| 20260503045404 | 48 | 109 | 3.5 | 6.1 | 0.00 | 0.00 | 0.00 | 71 | 1020.6 |
| 20260503044524 | 46 | 96 | 3.5 | 5.2 | 0.00 | 0.00 | 0.00 | 75 | 1020.8 |
| 20260503043604 | 46 | 87 | 4.3 | 7.0 | 0.00 | 0.00 | 0.00 | 74 | 1020.9 |
| 20260503042703 | 46 | 104 | 3.5 | 5.2 | 0.00 | 0.00 | 0.00 | 76 | 1020.5 |
| 20260503041803 | 46 | 77 | 3.5 | 4.3 | 0.00 | 0.00 | 0.00 | 77 | 1020.6 |
| 20260503040903 | 46 | 98 | 2.6 | 4.3 | 0.00 | 0.00 | 0.00 | 78 | 1020.5 |
| 20260503040003 | 46 | 49 | 1.7 | 5.2 | 0.00 | 0.00 | 0.00 | 79 | 1020.3 |
| 20260503035403 | 46 | 58 | 1.7 | 3.5 | 0.00 | 0.00 | 0.00 | 79 | 1020.5 |
| 20260503034503 | 46 | 45 | 2.6 | 7.0 | 0.00 | 0.00 | 0.00 | 76 | 1020.3 |
| 20260503033603 | 47 | 52 | 6.1 | 10.4 | 0.00 | 0.00 | 0.00 | 72 | 1020.2 |
| 20260503032703 | 47 | 60 | 3.5 | 5.2 | 0.00 | 0.00 | 0.00 | 72 | 1020.1 |
| 20260503031803 | 47 | 62 | 3.5 | 7.8 | 0.00 | 0.00 | 0.00 | 72 | 1020.1 |
| 20260503030903 | 47 | 68 | 3.5 | 7.0 | 0.00 | 0.00 | 0.00 | 72 | 1020.1 |
| 20260503030003 | 47 | 75 | 4.3 | 11.3 | 0.00 | 0.00 | 0.00 | 71 | 1020.1 |
| 20260503025403 | 48 | 95 | 3.5 | 8.7 | 0.00 | 0.00 | 0.00 | 70 | 1020.1 |
| 20260503024503 | 47 | 127 | 2.6 | 5.2 | 0.00 | 0.00 | 0.00 | 71 | 1020.2 |
| 20260503023624 | 48 | 54 | 1.7 | 3.5 | 0.00 | 0.00 | 0.00 | 70 | 1020.1 |
| 20260503022704 | 48 | 62 | 2.6 | 5.2 | 0.00 | 0.00 | 0.00 | 69 | 1020.2 |
| 20260503021803 | 48 | 88 | 3.5 | 7.0 | 0.00 | 0.00 | 0.00 | 69 | 1020.2 |
| 20260503020903 | 49 | 60 | 6.1 | 11.3 | 0.00 | 0.00 | 0.00 | 69 | 1020.2 |
| 20260503020003 | 49 | 66 | 6.1 | 12.2 | 0.00 | 0.00 | 0.00 | 68 | 1020.1 |
| 20260503015403 | 49 | 68 | 6.1 | 9.6 | 0.00 | 0.00 | 0.00 | 68 | 1020.3 |
| 20260503014503 | 49 | 60 | 6.1 | 10.4 | 0.00 | 0.00 | 0.00 | 68 | 1020.3 |
| 20260503013603 | 50 | 54 | 5.2 | 11.3 | 0.00 | 0.00 | 0.00 | 66 | 1020.3 |
| 20260503012704 | 50 | 79 | 5.2 | 7.8 | 0.00 | 0.00 | 0.00 | 65 | 1020.2 |
| 20260503011803 | 51 | 78 | 6.1 | 8.7 | 0.00 | 0.00 | 0.00 | 64 | 1020.4 |
| 20260503010905 | 51 | 89 | 5.2 | 7.8 | 0.00 | 0.00 | 0.00 | 63 | 1020.2 |
| 20260503010003 | 51 | 96 | 5.2 | 7.8 | 0.00 | 0.00 | 0.00 | 63 | 1020.4 |
| 20260503005403 | 51 | 99 | 5.2 | 8.7 | 0.00 | 0.00 | 0.00 | 63 | 1020.3 |
| 20260503004503 | 51 | 86 | 6.1 | 9.6 | 0.00 | 0.00 | 0.00 | 63 | 1020.5 |
| 20260503003603 | 51 | 77 | 6.1 | 9.6 | 0.00 | 0.00 | 0.00 | 64 | 1020.5 |
| 20260503002704 | 51 | 72 | 7.0 | 9.6 | 0.00 | 0.00 | 0.00 | 64 | 1020.5 |
| 20260503001814 | 51 | 72 | 7.0 | 10.4 | 0.00 | 0.00 | 0.00 | 63 | 1020.6 |
| 20260503000903 | 51 | 76 | 6.1 | 9.6 | 0.00 | 0.00 | 0.00 | 62 | 1020.5 |
| 20260503000003 | 51 | 75 | 7.0 | 10.4 | 0.00 | 0.00 | 0.00 | 62 | 1020.7 |
| 20260502235405 | 51 | 76 | 7.0 | 9.6 | 0.00 | 0.00 | 0.00 | 62 | 1020.6 |
| 20260502234503 | 52 | 79 | 6.1 | 9.6 | 0.00 | 0.00 | 0.00 | 62 | 1020.7 |
| 20260502233603 | 52 | 77 | 6.1 | 9.6 | 0.00 | 0.00 | 0.00 | 62 | 1020.8 |
| 20260502232703 | 52 | 84 | 6.1 | 8.7 | 0.00 | 0.00 | 0.00 | 61 | 1020.9 |
| 20260502231806 | 52 | 87 | 4.3 | 7.0 | 0.00 | 0.00 | 0.00 | 62 | 1021.1 |
| 20260502230903 | 52 | 73 | 5.2 | 7.8 | 0.00 | 0.00 | 0.00 | 62 | 1021.1 |
| 20260502230003 | 52 | 70 | 5.2 | 9.6 | 0.00 | 0.00 | 0.00 | 61 | 1021.3 |
| 20260502225403 | 53 | 73 | 7.0 | 11.3 | 0.00 | 0.00 | 0.00 | 61 | 1020.9 |
| 20260502224524 | 53 | 71 | 7.0 | 11.3 | 0.00 | 0.00 | 0.00 | 59 | 1020.9 |
| 20260502223604 | 54 | 75 | 5.2 | 8.7 | 0.00 | 0.00 | 0.00 | 57 | 1021.2 |
| 20260502222706 | 54 | 73 | 5.2 | 7.8 | 0.00 | 0.00 | 0.00 | 58 | 1020.9 |
| 20260502221803 | 54 | 80 | 6.1 | 8.7 | 0.00 | 0.00 | 0.00 | 57 | 1020.7 |
| 20260502220903 | 55 | 76 | 7.0 | 10.4 | 0.00 | 0.00 | 0.00 | 56 | 1020.8 |
| 20260502220025 | 55 | 85 | 7.0 | 10.4 | 0.00 | 0.00 | 0.00 | 56 | 1020.8 |
| 20260502215405 | 55 | 91 | 7.0 | 11.3 | 0.00 | 0.00 | 0.00 | 55 | 1020.7 |